Location: �chenoz-la-M�line
(47.6009°N, 6.1354°E)
Time: 12:58:34
(UTC+00:00)

GEOS 3 Rocket - Pass Details

Date: 27 January 2021
Orbit: 772 x 848 km, 115.0° (Epoch: 02 March)

Event Time Altitude Azimuth Distance (km) Brightness Sun altitude
Rises 06:14:34 0° 162° (SSE) 3,364 7.4 -9.2°
Reaches altitude 10° 06:17:00 10° 169° (S) 2,443 6.5 -8.8°
Maximum altitude 06:22:00 40° 239° (WSW) 1,219 4.3 -8.0°
Drops below altitude 10° 06:27:04 10° 308° (NW) 2,478 5.5 -7.2°
Enters shadow 06:27:58 - 312° (NW) 2,810 5.8 -7.0°
